Miscellaneous Local Product
Issued by NWS North Platte, NE

Home | Current Version | Previous Version | Text Only | Print | Product List | Glossary On
Versions: 1 2 3 4 5 6 7 8 9 10 11 12 13 14 15 16 17 18 19 20 21 22 23 24 25 26 27 28 29 30 31 32 33 34 35 36 37 38 39 40 41 42 43 44 45 46 47 48 49 50
573
AXUS43 KLBF 250410
MISLBF


WESTERN AND NORTH CENTRAL NEBRASKA HOURLY WEATHER ROUNDUP
NATIONAL WEATHER SERVICE NORTH PLATTE NE
1100 PM CDT WED MAY 24 2017

NOTE: "FAIR" INDICATES FEW OR NO CLOUDS BELOW 12,000 FEET WITH NO
SIGNIFICANT WEATHER AND/OR OBSTRUCTIONS TO VISIBILITY.

NOTE: STATIONS NOT REPORTING VARIABLES SUCH AS SKY/WEATHER OR
PRESSURE ARE PROVIDED BY RAWS AND APRS NETWORKS AND ARE NOT UNDER
NATIONAL WEATHER SERVICE QUALITY CONTROL.

...OBSERVATIONS IN AND NEAR THE EASTERN PANHANDLE OF NEBRASKA...

CITY           SKY/WX    TMP DP  RH WIND       PRES   REMARKS
PINE RIDGE     PTCLDY    68  46  45 S23G39    29.37S
GORDON         FAIR      63  45  50 S16G23    29.42F
CHADRON        CLOUDY    68  45  43 S25G36    29.35R
ALLIANCE       CLEAR     60  46  59 SE16      29.45R
SIDNEY         CLEAR     56  48  74 E7        29.52R
CRESCENT LAKE    N/A     61  46  56 SE13G24     N/A
$$

...OBSERVATIONS IN NORTHERN NEBRASKA AND FAR SOUTHERN SOUTH DAKOTA...

CITY           SKY/WX    TMP DP  RH WIND       PRES   REMARKS
WINNER         FAIR      60  44  55 SE22G28   29.47S
VALENTINE      CLEAR     61  40  45 SE17      29.47S
THEDFORD       CLEAR     58  41  53 SE15G21   29.55R
AINSWORTH      CLEAR     56  43  61 S18G26    29.51S
O`NEILL        CLEAR     56  41  57 S13       29.58F
ORD            CLEAR     55  41  59 SE10      29.59S
BROKEN BOW     CLEAR     56  44  64 S14       29.59R
VALENTINE NWR    N/A     58  39  50 S15         N/A
HALSEY           N/A     56  40  54 SE7         N/A
BUTTE            N/A     56  45  66 SE14        N/A
CHAMBERS         N/A     54  42  62 S3          N/A
EWING            N/A     55  44  67 S6          N/A
$$

...OBSERVATIONS IN SOUTHWEST NEBRASKA AND FAR NORTHEAST COLORADO...

CITY           SKY/WX    TMP DP  RH WIND       PRES   REMARKS
WRAY           FAIR      66  43  42 S20G26    29.53R
IMPERIAL       CLEAR     60  44  55 SE18      29.54R
OGALLALA       CLEAR     63  45  52 SE17G29   29.51S
NORTH PLATTE   CLEAR     58  42  55 SE13      29.55S
MCCOOK         CLEAR     58  44  60 SE13      29.58S
LEXINGTON      CLEAR     58  44  59 SE15      29.59S
STAPLETON        N/A     56  43  61 CALM        N/A
GOTHENBURG       N/A     59  40  49 SE9         N/A
CALLAWAY         N/A     56  43  61 S18         N/A
$$

...OBSERVATIONS IN CENTRAL LINCOLN COUNTY AREA...

CITY           SKY/WX    TMP DP  RH WIND       PRES   REMARKS
N.P. AIRPORT   CLEAR     58  42  55 SE13      29.55S
N.P. DOWNTOWN    N/A     59  44  56 SE3         N/A
N.P. SOUTHEAST   N/A     58  42  55 SE8         N/A
N.P. HILLCREST   N/A     57  43  60 SE13G20     N/A
$$

...SOME OBSERVATIONS FROM AROUND THE REGION...

CITY           SKY/WX    TMP DP  RH WIND       PRES   REMARKS
DENVER         PTCLDY    66  37  34 SW8       29.61S
LIMON          CLEAR     52  42  69 SE6       29.67R
ASPEN          CLOUDY    54  33  45 SW14G20   29.84R
LARAMIE        CLEAR     51  33  50 SW8       29.69R
CASPER         PTCLDY    66  38  35 W17G28    29.53R
CHEYENNE       CLEAR     57  38  48 SW7       29.63R
SCOTTSBLUFF    CLEAR     69  41  36 W6        29.45R
GRAND ISLAND   CLEAR     56  46  69 SE10      29.65S
OMAHA          CLEAR     56  45  66 CALM      29.68S
SIOUX FALLS    CLEAR     53  45  74 SE10      29.65R
PIERRE         CLEAR     58  43  57 SE18G26   29.42R
RAPID CITY     PTCLDY    66  50  56 S17       29.28F
BISMARCK       MOCLDY    60  42  51 SE16G23   29.40S
KANSAS CITY    CLEAR     57  48  72 NE3       29.70R
HILL CITY      CLEAR     56  47  71 SE8       29.63R
WICHITA        CLEAR     55  45  68 SE8       29.70S
DODGE CITY     CLEAR     57  45  64 SE16      29.66R
OKLAHOMA CITY  CLEAR     57  47  69 SE7       29.71R
DALLAS         CLEAR     68  49  50 SE7       29.70R
AMARILLO       CLEAR     62  39  42 SE10      29.68R
$$




USA.gov is the U.S. government's official web portal to all federal, state and local government web resources and services.